Flag for Germany Weather past 2 weeks in Buxtehude, Lower Saxony, Germany

Now
41 °F

Clear.


Feels Like: 33 °F
Forecast: 36 / 43 °F
Wind: 15 mph from Southwest

Location: Hamburg-Fuhlsbuettel

Current Time: Mar 31, 2015 at 3:16:50 AM

Latest Report: Mar 31, 2015 at 2:50 AM


Visibility: 10 mi

Pressure: 29.42 "Hg

Humidity: 70%

Dew point: 32 °F

Location of BuxtehudeLocation

Historic Weather in Buxtehude — Graph

°F

Buxtehude temperature yesterday

Maximum temperature yesterday: 46 °F (at 2:20 PM)
Minimum temperature yesterday: 39 °F (at 6:20 AM)
Average temperature yesterday: 42 °F

Past Weeks' High & Low Weather Summary

 TemperatureHumidityPressure
High59 °F (Mar 17, 2:50 PM)100% (Mar 20, 6:20 AM)30.45 "Hg (Mar 20, 6:20 AM)
Low28 °F (Mar 20, 6:20 AM)27% (Mar 19, 2:50 PM)28.91 "Hg (Mar 29, 10:20 PM)
Average44 °F74%29.98 "Hg
* Reported Mar 16 12:20 AM — Mar 31 1:20 AM, Buxtehude, Weather by CustomWeather, © 2015

Note: Actual official high and low records may vary slightly from our data, if they occured in-between our weather recording intervals... More about our weather records

Advertising

Buxtehude weather history for previous 24 hours

 ConditionsComfort  
Time TempWeatherWind HumidityBarometerVisibility
1:20 AM
Tue, Mar 31
39 °FPassing clouds.14 mph81%29.50 "HgN/A
12:50 AM39 °FPassing clouds.14 mph81%29.53 "HgN/A
12:20 AM41 °FClear.16 mph76%29.56 "Hg10 mi
11:50 PM
Mon, Mar 30
41 °FPassing clouds.13 mph76%29.56 "HgN/A
11:20 PM41 °FPassing clouds.15 mph76%29.59 "HgN/A
10:50 PM41 °FPassing clouds.14 mph76%29.62 "HgN/A
10:20 PM41 °FPassing clouds.12 mph76%29.62 "HgN/A
9:50 PM41 °FPassing clouds.12 mph76%29.62 "HgN/A
9:20 PM41 °FPassing clouds.16 mph70%29.62 "HgN/A
8:50 PM43 °FScattered showers. Scattered clouds.18 mph66%29.62 "HgN/A
8:20 PM43 °FScattered showers. Partly sunny.18 mph71%29.62 "HgN/A
7:50 PM43 °FScattered showers. Partly sunny.24 mph71%29.59 "HgN/A
7:20 PM43 °FScattered showers. Partly sunny.24 mph71%29.59 "HgN/A
6:50 PM43 °FScattered clouds.28 mph76%29.56 "HgN/A
6:20 PM41 °FSnow flurries. Partly sunny.29 mph87%29.56 "HgN/A
5:50 PM41 °FSprinkles. Partly sunny.21 mph87%29.53 "HgN/A
5:20 PM45 °FSprinkles. Partly sunny.31 mph71%29.50 "HgN/A
4:50 PM45 °FPartly sunny.28 mph66%29.50 "HgN/A
4:20 PM43 °FScattered showers. Partly sunny.28 mph71%29.47 "HgN/A
3:50 PM45 °FScattered showers. Partly sunny.32 mph66%29.45 "HgN/A
3:20 PM45 °FScattered showers. Partly sunny.36 mph71%29.45 "HgN/A
2:50 PM46 °FScattered showers. Partly sunny.29 mph71%29.42 "HgN/A
2:20 PM46 °FPartly sunny.29 mph66%29.39 "HgN/A
1:50 PM45 °FScattered showers. Partly sunny.28 mph76%29.39 "HgN/A
1:20 PM45 °FScattered showers. Partly sunny.31 mph76%29.36 "HgN/A
12:50 PM43 °FSprinkles. Partly sunny.31 mph81%29.33 "HgN/A
12:20 PM43 °FScattered showers. Partly sunny.28 mph87%29.30 "HgN/A
11:50 AM43 °FSprinkles. Partly sunny.21 mph87%29.27 "HgN/A
11:20 AM43 °FSprinkles. Partly sunny.21 mph87%29.27 "HgN/A
10:50 AM41 °FSprinkles. Partly sunny.21 mph93%29.24 "HgN/A
10:20 AM41 °FSprinkles. Partly sunny.17 mph93%29.21 "Hg6 mi
9:50 AM41 °FSprinkles. Partly sunny.21 mph93%29.21 "HgN/A
9:20 AM41 °FSprinkles. Broken clouds.18 mph87%29.21 "HgN/A
8:50 AM41 °FSprinkles. Broken clouds.18 mph87%29.21 "HgN/A
8:20 AM41 °FSprinkles. Broken clouds.14 mph87%29.18 "HgN/A
7:50 AM39 °FSprinkles. Passing clouds.15 mph93%29.18 "HgN/A
7:20 AM41 °FRain showers. Partly cloudy.17 mph93%29.18 "HgN/A
6:50 AM39 °FSprinkles. Passing clouds.14 mph93%29.15 "HgN/A
6:20 AM39 °FSprinkles. Passing clouds.16 mph93%29.15 "HgN/A
5:50 AM43 °FPassing clouds.13 mph81%29.15 "HgN/A
5:20 AM43 °FPassing clouds.17 mph81%29.15 "HgN/A
4:50 AM41 °FPartly cloudy.16 mph93%29.15 "HgN/A
4:20 AM41 °FSprinkles. Partly cloudy.20 mph93%29.15 "HgN/A
3:50 AM43 °FPartly cloudy.22 mph87%29.12 "HgN/A
3:20 AM43 °FPartly cloudy.21 mph87%29.12 "HgN/A
Weather by CustomWeather, © 2015

See weather overviewHow to use our weather pages